GW3580 Weather Reports


Display with metric or nautical units.
time (UTC)temp
F
wind
direction
speed
MPH
gust
MPH
rain 1hr
in
rain 24hr
in
rain mn
in
humidity
%
barometer
mb
20260510173457 78 251 2.0 2.0 0.00 0.00 0.00 49 1012.8
20260510172954 78 320 0.0 0.0 0.00 0.00 0.00 50 1012.7
20260510172449 78 266 2.0 2.0 0.00 0.00 0.00 51 1012.6
20260510171946 78 320 3.0 4.0 0.00 0.00 0.00 50 1012.5
20260510171443 77 272 1.0 1.0 0.00 0.00 0.00 51 1012.9
20260510170939 77 291 0.0 1.0 0.00 0.00 0.00 53 1012.7
20260510170436 77 257 3.0 4.0 0.00 0.00 0.00 53 1012.7
20260510165932 76 257 2.0 2.0 0.00 0.00 0.00 55 1012.7
20260510165428 75 256 1.0 2.0 0.00 0.00 0.00 55 1012.7
20260510164925 75 232 2.0 4.0 0.00 0.00 0.00 53 1012.8
20260510164422 75 275 2.0 2.0 0.00 0.00 0.00 55 1012.6
20260510163917 74 279 0.0 1.0 0.00 0.00 0.00 56 1012.7
20260510163413 73 243 2.0 2.0 0.00 0.00 0.00 57 1012.9
20260510162908 73 254 2.0 2.0 0.00 0.00 0.00 58 1012.7
20260510162406 72 344 1.0 1.0 0.00 0.00 0.00 60 1012.7
20260510161901 72 287 0.0 1.0 0.00 0.00 0.00 60 1012.6
20260510161357 71 353 1.0 1.0 0.00 0.00 0.00 61 1012.7
20260510160853 70 245 1.0 2.0 0.00 0.00 0.00 62 1012.6
20260510160350 70 255 1.0 2.0 0.00 0.00 0.00 63 1012.8
20260510155844 70 276 1.0 1.0 0.00 0.00 0.00 62 1012.7
20260510155342 71 263 2.0 2.0 0.00 0.00 0.00 61 1012.5
20260510154837 69 304 0.0 0.0 0.00 0.00 0.00 66 1012.7
20260510154333 68 283 2.0 2.0 0.00 0.00 0.00 65 1012.6
20260510153828 68 265 1.0 1.0 0.00 0.00 0.00 66 1012.9
20260510153324 69 284 1.0 1.0 0.00 0.00 0.00 65 1012.6
20260510152821 69 53 0.0 0.0 0.00 0.00 0.00 64 1012.6
20260510152318 69 56 2.0 2.0 0.00 0.00 0.00 64 1012.6
20260510151814 68 52 0.0 1.0 0.00 0.00 0.00 65 1012.5
20260510151313 67 57 1.0 1.0 0.00 0.00 0.00 66 1012.6
20260510150808 66 155 0.0 0.0 0.00 0.00 0.00 69 1012.6
20260510150304 66 264 2.0 2.0 0.00 0.00 0.00 69 1012.4
20260510145800 65 312 0.0 0.0 0.00 0.00 0.00 71 1012.3
20260510145257 65 17 0.0 0.0 0.00 0.00 0.00 70 1012.4
20260510144753 64 31 0.0 0.0 0.00 0.00 0.00 70 1012.4
20260510144249 64 29 0.0 0.0 0.00 0.00 0.00 70 1012.5
20260510143744 64 54 1.0 2.0 0.00 0.00 0.00 71 1012.5
20260510143240 64 22 0.0 1.0 0.00 0.00 0.00 71 1012.2
20260510142737 63 78 0.0 0.0 0.00 0.00 0.00 72 1012.2
20260510142234 63 14 0.0 1.0 0.00 0.00 0.00 72 1012.2
20260510141731 63 264 2.0 2.0 0.00 0.00 0.00 73 1012.2
20260510141229 62 266 0.0 0.0 0.00 0.00 0.00 74 1012.3
20260510140725 62 69 0.0 1.0 0.00 0.00 0.00 74 1012.0
20260510140220 62 358 0.0 0.0 0.00 0.00 0.00 76 1011.9
20260510135714 61 328 0.0 1.0 0.00 0.00 0.00 78 1011.8
20260510135211 60 324 0.0 1.0 0.00 0.00 0.00 80 1011.8
20260510134708 60 332 0.0 0.0 0.00 0.00 0.00 81 1011.7
20260510134206 60 7 0.0 0.0 0.00 0.00 0.00 81 1011.5
20260510133701 60 7 0.0 0.0 0.00 0.00 0.00 82 1011.5
20260510133157 59 32 0.0 0.0 0.00 0.00 0.00 82 1011.6
20260510132653 59 32 0.0 0.0 0.00 0.00 0.00 82 1011.5
20260510132150 59 34 0.0 0.0 0.00 0.00 0.00 82 1011.6
20260510131648 59 34 0.0 0.0 0.00 0.00 0.00 82 1011.4
20260510131145 59 34 0.0 0.0 0.00 0.00 0.00 82 1011.2
20260510130641 59 34 0.0 0.0 0.00 0.00 0.00 81 1011.4
20260510130139 59 34 0.0 0.0 0.00 0.00 0.00 81 1011.4
20260510125635 59 34 0.0 0.0 0.00 0.00 0.00 81 1011.3
20260510125131 59 34 0.0 0.0 0.00 0.00 0.00 80 1011.1
20260510124629 59 34 0.0 0.0 0.00 0.00 0.00 80 1011.3
20260510124125 59 34 0.0 0.0 0.00 0.00 0.00 80 1011.3
20260510123621 59 35 0.0 0.0 0.00 0.00 0.00 80 1011.2
20260510123117 60 35 0.0 0.0 0.00 0.00 0.00 79 1011.3
20260510122613 60 34 0.0 0.0 0.00 0.00 0.00 79 1011.4
20260510122109 60 35 0.0 0.0 0.00 0.00 0.00 79 1011.4
20260510121606 60 34 0.0 0.0 0.00 0.00 0.00 78 1011.3
20260510121103 60 35 0.0 0.0 0.00 0.00 0.00 78 1011.2
20260510120601 60 33 0.0 0.0 0.00 0.00 0.00 79 1011.2
20260510120056 60 35 0.0 0.0 0.00 0.00 0.00 79 1011.3
20260510115553 60 32 0.0 0.0 0.00 0.00 0.00 79 1011.2
20260510115050 60 32 0.0 0.0 0.00 0.00 0.00 79 1011.1
20260510114546 60 32 0.0 0.0 0.00 0.00 0.00 79 1011.2
20260510114042 60 37 0.0 0.0 0.00 0.00 0.00 79 1011.1
20260510113537 60 37 0.0 0.0 0.00 0.00 0.00 79 1011.0
20260510113035 60 37 0.0 0.0 0.00 0.00 0.00 79 1011.1
20260510112532 60 37 0.0 0.0 0.00 0.00 0.00 79 1011.1
20260510112028 60 37 0.0 0.0 0.00 0.00 0.00 79 1011.1
20260510111525 61 37 0.0 0.0 0.00 0.00 0.00 79 1010.9
20260510111021 61 37 0.0 0.0 0.00 0.00 0.00 79 1011.1
20260510110517 61 37 0.0 0.0 0.00 0.00 0.00 79 1011.2
20260510110014 61 37 0.0 0.0 0.00 0.00 0.00 78 1010.9
20260510105509 61 37 0.0 0.0 0.00 0.00 0.00 78 1011.1
20260510105004 61 37 0.0 0.0 0.00 0.00 0.00 78 1010.9
20260510104501 62 37 0.0 0.0 0.00 0.00 0.00 78 1011.1
20260510103957 62 43 0.0 0.0 0.00 0.00 0.00 78 1011.0
20260510103454 62 30 0.0 1.0 0.00 0.00 0.00 78 1011.0
20260510102950 62 30 0.0 0.0 0.00 0.00 0.00 78 1010.9
20260510102446 62 30 0.0 0.0 0.00 0.00 0.00 77 1010.9
20260510101943 62 30 0.0 0.0 0.00 0.00 0.00 77 1010.8
20260510101441 63 35 0.0 0.0 0.00 0.00 0.00 77 1010.8
20260510100939 63 343 0.0 0.0 0.00 0.00 0.00 76 1010.9
20260510100435 63 342 0.0 1.0 0.00 0.00 0.00 75 1010.8
20260510095931 64 314 0.0 0.0 0.00 0.00 0.00 74 1011.1
20260510095427 64 291 0.0 1.0 0.00 0.00 0.00 73 1010.8
20260510094926 64 284 1.0 2.0 0.00 0.00 0.00 73 1010.9
20260510094421 64 278 2.0 2.0 0.00 0.00 0.00 74 1010.8
20260510093917 64 259 1.0 1.0 0.00 0.00 0.00 74 1011.0
20260510093413 64 270 0.0 0.0 0.00 0.00 0.00 73 1011.0
20260510092910 64 206 0.0 0.0 0.00 0.00 0.00 73 1010.9
20260510092407 64 351 0.0 0.0 0.00 0.00 0.00 72 1011.0
20260510091907 65 330 0.0 0.0 0.00 0.00 0.00 72 1010.8
20260510091404 65 33 0.0 0.0 0.00 0.00 0.00 71 1011.0
20260510090900 65 35 0.0 0.0 0.00 0.00 0.00 71 1011.0
20260510090357 65 28 0.0 0.0 0.00 0.00 0.00 71 1011.1
20260510085853 66 39 0.0 1.0 0.00 0.00 0.00 71 1011.2
20260510085348 66 192 0.0 0.0 0.00 0.00 0.00 71 1011.0
20260510084844 66 193 0.0 0.0 0.00 0.00 0.00 70 1011.1
20260510084341 66 35 0.0 0.0 0.00 0.00 0.00 70 1011.0
20260510083838 66 0 0.0 0.0 0.00 0.00 0.00 70 1011.1
20260510083334 67 336 0.0 0.0 0.00 0.00 0.00 70 1011.0
20260510082830 67 35 0.0 0.0 0.00 0.00 0.00 69 1011.0
20260510082327 68 82 0.0 0.0 0.00 0.00 0.00 68 1010.8
20260510081826 68 263 0.0 1.0 0.00 0.00 0.00 68 1010.9
20260510081322 68 299 0.0 1.0 0.00 0.00 0.00 67 1010.8
20260510080819 69 217 2.0 2.0 0.00 0.00 0.00 67 1010.9
20260510080313 69 237 1.0 1.0 0.00 0.00 0.00 66 1011.0
20260510075811 69 249 1.0 1.0 0.00 0.00 0.00 66 1010.9
20260510075308 69 264 1.0 1.0 0.00 0.00 0.00 65 1010.9
20260510074805 69 259 2.0 2.0 0.00 0.00 0.00 65 1011.2
20260510074302 69 257 1.0 1.0 0.00 0.00 0.00 64 1010.9
20260510073758 70 259 1.0 2.0 0.00 0.00 0.00 63 1011.1
20260510073254 70 254 2.0 2.0 0.00 0.00 0.00 63 1010.9
20260510072749 70 270 1.0 2.0 0.00 0.00 0.00 63 1011.0
20260510072246 70 232 3.0 4.0 0.00 0.00 0.00 63 1010.9
20260510071743 70 268 2.0 2.0 0.00 0.00 0.00 64 1011.2
20260510071239 70 273 0.0 1.0 0.00 0.00 0.00 63 1011.2
20260510070738 71 236 1.0 1.0 0.00 0.00 0.00 63 1011.1
20260510070235 71 262 1.0 1.0 0.00 0.00 0.00 62 1011.0
20260510065729 71 254 2.0 2.0 0.00 0.00 0.00 62 1010.9
20260510065226 71 257 2.0 2.0 0.00 0.00 0.00 62 1010.9
20260510064723 71 263 1.0 1.0 0.00 0.00 0.00 61 1010.9
20260510064221 71 240 2.0 2.0 0.00 0.00 0.00 61 1010.9
20260510063717 71 266 2.0 2.0 0.00 0.00 0.00 61 1010.9
20260510063213 71 226 1.0 1.0 0.00 0.00 0.00 62 1011.0
20260510062710 71 238 1.0 1.0 0.00 0.00 0.00 61 1010.8
20260510062206 71 237 0.0 0.0 0.00 0.00 0.00 61 1010.6
20260510061701 71 251 1.0 1.0 0.00 0.00 0.00 61 1010.8
20260510061159 71 250 2.0 2.0 0.00 0.00 0.00 60 1010.6
20260510060655 71 254 1.0 1.0 0.00 0.00 0.00 60 1010.9
20260510060152 71 235 1.0 2.0 0.00 0.00 0.00 60 1011.0
20260510055648 72 247 0.0 0.0 0.00 0.00 0.00 59 1011.0
20260510055146 72 240 1.0 2.0 0.00 0.00 0.00 59 1010.9
20260510054641 72 284 0.0 1.0 0.00 0.00 0.00 58 1010.9
20260510054137 72 263 1.0 2.0 0.00 0.00 0.00 58 1010.9
20260510053636 72 258 1.0 1.0 0.00 0.00 0.00 58 1010.8
20260510053133 72 245 1.0 2.0 0.00 0.00 0.00 58 1010.8
20260510052629 72 260 0.0 0.0 0.00 0.00 0.00 58 1011.0
20260510052126 72 265 1.0 1.0 0.00 0.00 0.00 57 1011.0
20260510051621 72 298 0.0 0.0 0.00 0.00 0.00 56 1010.9
20260510051118 73 291 0.0 0.0 0.00 0.00 0.00 56 1010.9
20260510050615 72 313 0.0 0.0 0.00 0.00 0.00 56 1010.8
20260510050113 72 41 0.0 0.0 0.00 0.00 0.00 56 1010.8
20260510045609 72 80 0.0 0.0 0.00 0.00 0.00 56 1010.8
20260510045105 73 80 0.0 0.0 0.00 0.00 0.00 55 1010.8
20260510044602 73 81 0.0 0.0 0.00 0.00 0.00 55 1010.4
20260510044059 73 124 0.0 0.0 0.00 0.00 0.00 54 1010.4
20260510043555 74 124 0.0 0.0 0.00 0.00 0.00 54 1010.4
20260510043051 74 37 0.0 0.0 0.00 0.00 0.00 53 1010.3
20260510042545 75 237 0.0 1.0 0.00 0.00 0.00 53 1010.2
20260510042040 75 243 1.0 1.0 0.00 0.00 0.00 52 1010.3
20260510041537 75 227 1.0 1.0 0.00 0.00 0.00 52 1010.2
20260510041034 75 242 0.0 1.0 0.00 0.00 0.00 52 1010.1
20260510040050 76 250 2.0 2.0 0.00 0.00 0.00 50 1010.2
20260510035546 76 250 2.0 2.0 0.00 0.00 0.00 50 1010.2
20260510035046 76 235 1.0 1.0 0.00 0.00 0.00 50 1010.1
20260510034544 77 246 0.0 0.0 0.00 0.00 0.00 49 1009.8
20260510034041 77 246 0.0 0.0 0.00 0.00 0.00 49 1009.8
20260510033537 77 243 0.0 0.0 0.00 0.00 0.00 48 1009.9
20260510033035 77 247 0.0 1.0 0.00 0.00 0.00 49 1009.9
20260510032531 78 247 2.0 2.0 0.00 0.00 0.00 49 1009.8
20260510032027 78 246 2.0 2.0 0.00 0.00 0.00 49 1009.5
20260510031522 78 277 0.0 1.0 0.00 0.00 0.00 49 1009.8
20260510031018 78 312 0.0 0.0 0.00 0.00 0.00 49 1009.7
20260510030514 79 343 0.0 1.0 0.00 0.00 0.00 49 1009.5
20260510030011 80 345 0.0 0.0 0.00 0.00 0.00 47 1009.5
20260510025508 80 345 0.0 0.0 0.00 0.00 0.00 47 1009.4
20260510025006 81 345 0.0 0.0 0.00 0.00 0.00 47 1009.5
20260510024503 82 356 0.0 0.0 0.00 0.00 0.00 46 1009.4
20260510023958 82 1 0.0 0.0 0.00 0.00 0.00 45 1009.6
20260510023454 83 355 0.0 0.0 0.00 0.00 0.00 44 1009.4
20260510022952 84 333 0.0 0.0 0.00 0.00 0.00 42 1009.4
20260510022451 84 259 0.0 0.0 0.00 0.00 0.00 40 1009.3
20260510021950 85 254 1.0 1.0 0.00 0.00 0.00 39 1009.4
20260510021448 85 255 1.0 1.0 0.00 0.00 0.00 39 1009.2
20260510020944 86 285 3.0 4.0 0.00 0.00 0.00 37 1009.1
20260510020439 86 293 3.0 5.0 0.00 0.00 0.00 37 1009.2
20260510015935 86 267 2.0 2.0 0.00 0.00 0.00 35 1009.2
20260510015431 87 231 3.0 4.0 0.00 0.00 0.00 35 1009.2
20260510014926 87 258 5.0 5.0 0.00 0.00 0.00 34 1009.4
20260510014424 87 269 4.0 5.0 0.00 0.00 0.00 34 1009.2
20260510013920 87 256 4.0 5.0 0.00 0.00 0.00 33 1009.3
20260510013415 88 252 1.0 2.0 0.00 0.00 0.00 33 1009.3
20260510012910 88 264 2.0 2.0 0.00 0.00 0.00 32 1009.1
20260510012406 88 264 5.0 6.0 0.00 0.00 0.00 31 1009.3
20260510011900 88 249 3.0 4.0 0.00 0.00 0.00 32 1009.3
20260510011356 89 242 2.0 2.0 0.00 0.00 0.00 29 1009.4
20260510010852 88 271 0.0 1.0 0.00 0.00 0.00 31 1009.5
20260510010350 89 267 3.0 4.0 0.00 0.00 0.00 32 1009.4
20260510005846 88 257 2.0 2.0 0.00 0.00 0.00 34 1009.3
20260510005343 88 249 5.0 7.0 0.00 0.00 0.00 33 1009.1
20260510004840 89 290 5.0 6.0 0.00 0.00 0.00 32 1009.6
20260510004337 89 277 1.0 1.0 0.00 0.00 0.00 35 1009.5
20260510003835 89 243 3.0 4.0 0.00 0.00 0.00 35 1009.4
20260510003332 89 16 1.0 1.0 0.00 0.00 0.00 33 1009.4
20260510002830 88 286 1.0 1.0 0.00 0.00 0.00 35 1009.7
20260510002328 89 262 5.0 6.0 0.00 0.00 0.00 34 1009.5
20260510001825 89 29 3.0 4.0 0.00 0.00 0.00 32 1009.6
20260510001323 89 249 2.0 2.0 0.00 0.00 0.00 33 1009.7
20260510000818 89 237 3.0 4.0 0.00 0.00 0.00 32 1009.5
20260510000318 89 242 2.0 2.0 0.00 0.00 0.00 32 1009.5
20260509235813 88 281 1.0 2.0 0.00 0.00 0.00 32 1009.6
20260509235309 89 261 5.0 5.0 0.00 0.00 0.00 30 1009.9
20260509234805 88 255 2.0 4.0 0.00 0.00 0.00 30 1009.8
20260509234302 89 349 0.0 1.0 0.00 0.00 0.00 31 1009.5
20260509233800 89 237 4.0 6.0 0.00 0.00 0.00 32 1009.7
20260509233258 88 281 2.0 2.0 0.00 0.00 0.00 34 1009.9
20260509232753 88 209 2.0 2.0 0.00 0.00 0.00 32 1009.8
20260509232251 90 275 4.0 5.0 0.00 0.00 0.00 31 1009.9
20260509231747 89 227 1.0 1.0 0.00 0.00 0.00 32 1009.9
20260509231244 89 254 1.0 1.0 0.00 0.00 0.00 32 1010.0
20260509230742 88 235 4.0 5.0 0.00 0.00 0.00 33 1010.0
20260509230239 88 248 4.0 5.0 0.00 0.00 0.00 33 1010.0
20260509225734 88 260 4.0 5.0 0.00 0.00 0.00 29 1010.2
20260509225230 88 290 2.0 2.0 0.00 0.00 0.00 29 1010.2
20260509224726 89 261 3.0 4.0 0.00 0.00 0.00 30 1010.2
20260509224223 89 247 2.0 2.0 0.00 0.00 0.00 32 1010.2
20260509223720 87 314 3.0 4.0 0.00 0.00 0.00 33 1010.4
20260509223217 88 271 3.0 4.0 0.00 0.00 0.00 33 1010.6
20260509222714 87 263 2.0 2.0 0.00 0.00 0.00 34 1010.6
20260509222209 87 255 2.0 2.0 0.00 0.00 0.00 34 1010.8
20260509221705 88 237 3.0 5.0 0.00 0.00 0.00 36 1010.8
20260509221201 87 247 3.0 5.0 0.00 0.00 0.00 34 1010.9
20260509220657 86 271 2.0 2.0 0.00 0.00 0.00 36 1010.9
20260509220154 86 269 3.0 4.0 0.00 0.00 0.00 37 1011.0
20260509215650 86 257 4.0 5.0 0.00 0.00 0.00 36 1011.2
20260509215147 87 75 3.0 5.0 0.00 0.00 0.00 36 1011.2
20260509214643 86 267 1.0 1.0 0.00 0.00 0.00 37 1011.2
20260509214140 87 242 1.0 2.0 0.00 0.00 0.00 36 1011.3
20260509213637 86 47 1.0 1.0 0.00 0.00 0.00 37 1011.1
20260509213133 86 253 4.0 5.0 0.00 0.00 0.00 37 1011.3
20260509212631 85 328 3.0 4.0 0.00 0.00 0.00 40 1011.6
20260509212127 84 274 5.0 6.0 0.00 0.00 0.00 40 1011.5
20260509211623 84 234 3.0 4.0 0.00 0.00 0.00 42 1011.5
20260509211120 84 223 4.0 5.0 0.00 0.00 0.00 40 1011.6
20260509210617 85 250 2.0 2.0 0.00 0.00 0.00 41 1011.8
20260509210114 84 215 0.0 1.0 0.00 0.00 0.00 42 1011.8
20260509205608 83 261 3.0 4.0 0.00 0.00 0.00 42 1011.8
20260509205103 83 228 2.0 4.0 0.00 0.00 0.00 42 1011.8
20260509204600 84 309 1.0 1.0 0.00 0.00 0.00 41 1012.0
20260509204056 84 284 2.0 4.0 0.00 0.00 0.00 40 1011.8
20260509203552 83 248 1.0 2.0 0.00 0.00 0.00 42 1011.8
20260509203051 84 259 3.0 4.0 0.00 0.00 0.00 40 1012.0
20260509202545 83 15 1.0 1.0 0.00 0.00 0.00 42 1012.1
20260509202041 83 303 2.0 2.0 0.00 0.00 0.00 42 1012.2
20260509201536 83 277 4.0 5.0 0.00 0.00 0.00 41 1012.1
20260509201034 83 252 5.0 5.0 0.00 0.00 0.00 41 1012.2
20260509200527 82 237 3.0 4.0 0.00 0.00 0.00 42 1012.1
20260509200024 82 216 0.0 1.0 0.00 0.00 0.00 43 1012.2
20260509195520 81 275 1.0 1.0 0.00 0.00 0.00 43 1012.3
20260509195020 82 2 1.0 2.0 0.00 0.00 0.00 43 1012.3
20260509194515 80 255 2.0 2.0 0.00 0.00 0.00 45 1012.4
20260509194013 81 235 2.0 4.0 0.00 0.00 0.00 44 1012.4
20260509193513 82 223 2.0 2.0 0.00 0.00 0.00 44 1012.6
20260509193010 81 76 0.0 0.0 0.00 0.00 0.00 43 1012.6
20260509192506 81 247 2.0 2.0 0.00 0.00 0.00 42 1012.7
20260509192001 80 47 2.0 2.0 0.00 0.00 0.00 43 1012.6
20260509191456 80 336 1.0 1.0 0.00 0.00 0.00 44 1012.7
20260509190952 79 230 1.0 1.0 0.00 0.00 0.00 45 1012.8
20260509190449 80 253 3.0 5.0 0.00 0.00 0.00 45 1012.9
20260509185947 80 266 2.0 4.0 0.00 0.00 0.00 45 1013.0
20260509185444 78 12 1.0 1.0 0.00 0.00 0.00 47 1012.9
20260509184940 78 306 0.0 1.0 0.00 0.00 0.00 46 1013.1
20260509184439 77 298 1.0 4.0 0.00 0.00 0.00 47 1013.3
20260509183935 77 246 1.0 1.0 0.00 0.00 0.00 49 1013.1
20260509183429 77 340 2.0 2.0 0.00 0.00 0.00 47 1013.1
20260509182926 76 214 1.0 1.0 0.00 0.00 0.00 48 1013.3
20260509182422 77 342 1.0 2.0 0.00 0.00 0.00 48 1013.3
20260509181920 77 0 1.0 1.0 0.00 0.00 0.00 47 1013.4
20260509181418 75 260 2.0 4.0 0.00 0.00 0.00 49 1013.3
20260509180914 75 222 2.0 2.0 0.00 0.00 0.00 49 1013.2
20260509180409 75 261 2.0 2.0 0.00 0.00 0.00 49 1013.2
20260509175907 75 284 1.0 1.0 0.00 0.00 0.00 49 1013.5
20260509175402 76 305 3.0 5.0 0.00 0.00 0.00 49 1013.2
20260509174854 75 60 1.0 2.0 0.00 0.00 0.00 49 1013.3
20260509174350 75 344 1.0 1.0 0.00 0.00 0.00 50 1013.4
20260509173846 75 262 3.0 5.0 0.00 0.00 0.00 49 1013.5